Location: Wroclaw
(51.1000°N, 17.0330°E)
Time: 02:59:54
(UTC+01:00)

N. Korean satellite - Visible Passes

Search period start: 10 December 2022 00:00
Search period end: 20 December 2022 00:00
Orbit: 420 x 452 km, 97.3° (Epoch: 09 December)

Date Brightness Start Highest point End Pass type
(mag) Time Alt. Az. Time Alt. Az. Time Alt. Az.
10 Dec 6.8 05:11:37 10° NNE 05:15:00 63° ESE 05:18:19 10° S visible
10 Dec 8.3 06:45:30 10° NNW 06:47:01 13° WNW 06:48:32 10° W visible
10 Dec 9.6 17:19:17 10° SW 17:21:27 16° W 17:23:37 10° NW visible
11 Dec 8.9 04:32:58 10° NE 04:35:39 22° E 04:38:19 10° SSE visible
11 Dec 7.2 06:05:12 10° N 06:08:11 29° WNW 06:11:08 10° SW visible
11 Dec 7.9 16:38:47 10° S 16:42:01 41° W 16:45:18 10° NNW visible
12 Dec 6.2 05:25:43 10° NNE 05:29:07 86° W 05:32:26 10° SSW visible
12 Dec 10.0 17:34:34 10° WSW 17:35:39 11° W 17:36:45 10° WNW visible
13 Dec 8.2 04:46:43 10° NNE 04:49:46 30° E 04:52:45 10° SSE visible
13 Dec 7.6 06:19:29 10° NNW 06:22:06 21° WNW 06:24:43 10° WSW visible
13 Dec 8.7 16:53:03 10° SSW 16:56:04 29° W 16:59:06 10° NNW visible
14 Dec 9.8 04:11:19 10° ESE 04:11:19 10° ESE 04:11:23 10° ESE visible
14 Dec 7.4 05:39:41 10° N 05:44:43 25° SW 05:46:17 10° SSW visible
15 Dec 8.6 05:00:25 10° NNE 05:05:43 19° SSE 05:06:51 10° S visible
15 Dec 8.3 06:33:42 10° NNW 06:39:06 - WSW 06:34:36 13° NW visible
15 Dec 9.3 17:07:19 10° SW 17:09:57 21° W 17:12:37 10° NW visible
16 Dec9.704:26:29SE04:26:29SE04:21:05NEvisible
16 Dec 8.4 05:53:33 10° N 05:59:52 10° SW 05:54:23 16° N visible
16 Dec 7.1 16:27:01 10° S 16:30:23 59° W 16:33:46 10° NNW visible
17 Dec 9.1 05:14:01 10° NNE 05:20:29 11° S 05:20:38 10° S visible
17 Dec 9.6 17:21:39 10° SW 17:23:41 15° W 17:25:44 10° NW visible
18 Dec9.704:41:01SSE04:41:01SSE04:34:04NNEvisible
18 Dec 8.8 06:07:18 10° N 06:14:23 - SW 06:07:24 11° N visible
18 Dec 8.0 16:40:43 10° S 16:43:57 40° W 16:47:12 10° NNW visible
19 Dec9.305:34:48SSW05:34:48SSW05:27:16NNEvisible
19 Dec 10.0 17:36:24 10° WSW 17:37:16 11° W 17:38:08 10° WNW visible
